Погода в Гагарине

Погода в Гагарине : погода сейчас, прогноз погоды и архив. Всё, что Вы хотите узнать о погоде в Гагарине!

Хотите узнать прогноз погоды в Гагарине? Тогда Вам сюда: Погода в Гагарине

Поиск расширенной информации на нашем сайте:

Другие новости

Новости СМИ2

Главная страница сайта

Новости сайта

03.07.2017

Напоминаем, что на нашем специализированном сайте Метеоцентр.Азия вы можете получить высокодетализированные автоматические прогнозы погоды по пунктам России, СНГ и мира в авиационном формате (включающие направление и скорость ветра, видимость, явления погоды, количество и форму облачности, нижнюю и верхнюю границу облачности).

Рекомендуем: Не работает компьютер мастер компьютерная помощь.

Погода в Гагарине - сегодня

Время (UTC), дата Ветер
(°,м/с) 
Видим.   Явления Облачность Т
(°С)
Тd
(°С)
f(%) Тe
(°С)
Pmin
(гПа)
dP
(гПа)
Po
(мм)
O2
(г/м3)
Тmin Tmax R s Состояние
почвы
03 15.08.17 тихо ()   5000 м  дымка  ясно 
+11.2 +10.7 97 +13  1024.8  1.1  751  289  +11.1    0.4     
06 15.08.17 350 (С) 12000 м    ясно 
+18.1 +13.5 74 +26  1025.3  1.1  752  281  +11.1        влажная 
09 15.08.17 040 (СВ) 12000 м    3/3 600 м 
[Cu hum]
+21.3 +11.7 54 +25  1025.8  0.7  752  279           
12 15.08.17 040 (СВ) 12000 м    3/3 600 м 
[Cu hum]
+22.8 +10.3 45 +24  1025.7  752  278           
15 15.08.17 040 (СВ) 12000 м    1/1 600 м 
[Cu hum]
+21.6 +8.6 43 +22  1025.9  0.1  752  280           
21 15.08.17 080 (В) 5000 м  дымка  ясно 
+11 +10.1 94 +13  1028.2  0.7  754  290           
00 16.08.17 тихо ()   5000 м  местами туман поземный  ясно 
+9 +8.5 97 +9  1028.7  0.3  754  293           
03 16.08.17 тихо ()   3000 м  местами туман поземный  ясно 
+7.6 +7.2 97 +8  1029.1  0.3  754  294  +7.4         
06 16.08.17 090 (В) 12000 м    ясно 
+17.9 +10.6 62 +21  1028.5  0.3  754  283  +7.4        сухая 
09 16.08.17 080 (В) 12000 м    1/1 1000 м 
[Cu hum]
+21.3 +8.3 43 +21  1027.9  -0.4  754  280           
12 16.08.17 120 (ЮВ) 12000 м    3/3 600 м 
[Cu hum]
+23.1 +9.7 43 +24  1026.6  -1.1  753  278           
15 16.08.17 150 (ЮВ) 12000 м    5/5 600 м 
[Sc]
+22.4 +11.4 50 +25  1026  -0.7  753  278           
18 16.08.17 110 (В) 9000 м  местами туман поземный  ясно 
+14.8 +13.3 91 +22  1026.1  -0.4  752  285    +23.8       
21 16.08.17 тихо ()   5000 м  местами туман поземный  ясно 
+11.9 +11.3 96 +15  1026.8  0.4  753  288           
00 17.08.17 тихо ()   3500 м  туман поземный  ясно 
+9.6 +9.1 97 +10  1026.9  -0.1  752  291           
03 17.08.17 тихо ()   3000 м  местами туман поземный  4/3 600 м средняя 
[Sc|Ac trans]
+9.7 +9.2 97 +10  1026.9  0.1  753  291  +9.1         
06 17.08.17 170 (Ю) 12000 м    3/1 600 м средняя 
[Sc|Ac trans]
+19.6 +15 75 +30  1026.1  752  280  +9.1        сухая 
09 17.08.17 150 (ЮВ) 12000 м    3/1 600 м верхняя 
[Cu hum|Ci fib]
+24.3 +12.7 48 +29  1025.3  -0.5  752  276           
12 17.08.17 160 (Ю) 12000 м    9/4 600 м средняя, верхняя 
[Cu hum|Ac trans|Ci fib]
+24.3 +11.4 44 +27  1024.6  -0.7  752  276           
15 17.08.17 130 (ЮВ) 12000 м    10/0 верхняя 
[Ci fib]
+24.4 +12.4 47 +29  1023.5  -1  751  275           
18 17.08.17 тихо ()   8000 м  дымка  10/0 верхняя 
[Ci fib]
+16.6 +15.3 92 +26  1024.1  751  282    +26.2       
21 17.08.17 140 (ЮВ) 20000 м    ясно 
+16.4 +14.2 87 +25  1024.1  751  283           
00 18.08.17 150 (ЮВ) 6000 м  дымка  1/1 600 м 
[Sc]
+15.3 +14.4 94 +25  1024  -0.3  751  283           
03 18.08.17 160 (Ю) 6000 м  дымка  9/1 600 м средняя, верхняя 
[Sc|Ac trans|Ci fib]
+15.3 +14.5 95 +25  1023.9  751  283  +15.1         
06 18.08.17 170 (Ю) 12000 м    6/1 1000 м средняя, верхняя 
[Sc|Ac As|Ci fib]
+19.7 +15.3 76 +30  1023.6  751  279  +15.1        сухая 
Время (UTC), дата Ветер
(°,м/с) 
Видим.   Явления Облачность Т
(°С)
Тd
(°С)
f(%) Тe
(°С)
Pmin
(гПа)
dP
(гПа)
Po
(мм)
O2
(г/м3)
Тmin Tmax R s Состояние
почвы

Для получения пояснительной информации подведите курсор к названию столбца.

ПОГОДА в Гагарине - архив

Всё, что Вы хотите узнать о погоде в Гагарине - удобно и подробно!

Выберите нужную дату (начиная с 1 января 2015* года) и нажмите кнопку "Найти".
Будут отображены архивные сводки погоды по пункту Гагарин, начиная с указанной даты.


Отображать данные в формате CSV (для использования в таблицах Excel)


Внимание! Наш архив погоды предназначен исключительно для личного некоммерческого использования в познавательных целях. Если Вам необходимы официальные справки о состоянии погоды (для производственных, юридических, коммерческих и т.п. целей), обращайтесь в органы Росгидромета.

*Примечание: данная дата относится к архиву по метеостанциям СССР (Россия, СНГ, Балтия).
Архив по метеостанциям Зарубежной Европы и Азии (кроме Китая) хранится 10 дней, по другим регионам земного шара (Китай, Африка, Америка, Австралия, Океания) - 1 день.

Гагарин - район местоположения метеостанции


Название, широта, долгота, высота метеостанции:
Гагарин 55.5°ш. 35°д. 194 м над ур. моря [Российская Федерация]

Дополнительная информация

В oтличие oт бoльшинства пoгoдных сайтoв мы публикуем пoдрoбную метеoинфoрмацию в детальнoм прoфессиoнальнoм фoрмате.

Характеристики температуры и влажнoсти вoздуха измеряются на высoте 2 м в тени вдали oт зданий и деревьев.
Скoрoсть ветра измеряется на высoте 10 м (на урoвне рoста челoвека скoрoсть ветра ниже в 1.5-2 раза). Если метеoстанция нахoдится в гoрoде или в лесу, тo скoрoсть ветра занижена на 2-4 м/с пo сравнению с oткрытым местoм. Скoрoсть ветра над акватoриями крупных рек и oзёр, а также на вершинах хoлмoв на 2-5 м/с выше, чем в oбычных услoвиях.
Атмoсфернoе давление в разных тoчках местнoсти мoжет значительнo oтличаться oт давления на метеoстанции, в зависимoсти oт услoвий рельефа (при пoдъёме на 10 м давление пoнижается примернo на 1 мм рт.ст.).